| time (UTC) | temp F | wind direction | speed knots | gust knots | rain 1hr in | rain 24hr in | rain mn in | humidity % | barometer mb |
| 20260831141605 | 84 | 7 | 2.6 | 7.0 | 0.00 | 0.00 | 0.00 | 78 | 1016.6 |
| 20260831141329 | 85 | 170 | 2.6 | 7.8 | 0.00 | 0.00 | 0.00 | 79 | 1016.3 |
| 20260831140828 | 85 | 250 | 1.7 | 7.8 | 0.00 | 0.00 | 0.00 | 79 | 1016.4 |
| 20260831140551 | 84 | 59 | 2.6 | 6.1 | 0.00 | 0.00 | 0.00 | 81 | 1016.3 |
| 20260831140057 | 84 | 232 | 0.9 | 5.2 | 0.00 | 0.00 | 0.00 | 81 | 1016.7 |
| 20260831135829 | 84 | 146 | 1.7 | 5.2 | 0.00 | 0.00 | 0.00 | 82 | 1016.4 |
| 20260831135554 | 84 | 13 | 2.6 | 5.2 | 0.00 | 0.00 | 0.00 | 82 | 1016.2 |
| 20260831134831 | 83 | 240 | 1.7 | 6.1 | 0.00 | 0.00 | 0.00 | 82 | 1016.2 |
| 20260831134600 | 83 | 150 | 1.7 | 6.1 | 0.00 | 0.00 | 0.00 | 82 | 1016.3 |
| 20260831134330 | 83 | 60 | 1.7 | 6.1 | 0.00 | 0.00 | 0.00 | 83 | 1016.1 |
| 20260831133830 | 83 | 99 | 1.7 | 5.2 | 0.00 | 0.00 | 0.00 | 83 | 1016.1 |
| 20260831133329 | 83 | 308 | 1.7 | 5.2 | 0.00 | 0.00 | 0.00 | 83 | 1016.0 |
| 20260831133055 | 82 | 11 | 0.9 | 4.3 | 0.00 | 0.00 | 0.00 | 83 | 1016.2 |
| 20260831132828 | 83 | 298 | 1.7 | 4.3 | 0.00 | 0.00 | 0.00 | 84 | 1016.0 |
| 20260831132330 | 83 | 66 | 2.6 | 4.3 | 0.00 | 0.00 | 0.00 | 83 | 1015.9 |
| 20260831131829 | 83 | 189 | 1.7 | 4.3 | 0.00 | 0.00 | 0.00 | 84 | 1015.9 |
| 20260831131603 | 82 | 15 | 1.7 | 4.3 | 0.00 | 0.00 | 0.00 | 83 | 1016.0 |
| 20260831131329 | 83 | 293 | 0.9 | 4.3 | 0.00 | 0.00 | 0.00 | 84 | 1015.8 |
| 20260831130829 | 82 | 274 | 1.7 | 4.3 | 0.00 | 0.00 | 0.00 | 84 | 1015.9 |
| 20260831130328 | 82 | 240 | 1.7 | 5.2 | 0.00 | 0.00 | 0.00 | 85 | 1015.9 |
| 20260831130116 | 82 | 217 | 0.9 | 4.3 | 0.00 | 0.00 | 0.00 | 85 | 1016.1 |
| 20260831125828 | 82 | 63 | 1.7 | 5.2 | 0.00 | 0.00 | 0.00 | 85 | 1015.9 |
| 20260831125331 | 82 | 51 | 0.9 | 3.5 | 0.00 | 0.00 | 0.00 | 86 | 1015.8 |
| 20260831125316 | 81 | 44 | 1.7 | 3.5 | 0.00 | 0.00 | 0.00 | 86 | 1015.9 |
| 20260831124555 | 81 | 321 | 0.9 | 3.5 | 0.00 | 0.00 | 0.00 | 86 | 1016.0 |
| 20260831124329 | 81 | 338 | 0.9 | 2.6 | 0.00 | 0.00 | 0.00 | 86 | 1015.7 |
| 20260831123829 | 81 | 120 | 0.9 | 2.6 | 0.00 | 0.00 | 0.00 | 87 | 1015.5 |
| 20260831123329 | 81 | 295 | 0.9 | 1.7 | 0.00 | 0.00 | 0.00 | 87 | 1015.6 |
| 20260831123105 | 80 | 74 | 0.0 | 3.5 | 0.00 | 0.00 | 0.00 | 86 | 1015.7 |
| 20260831122828 | 81 | 262 | 0.9 | 3.5 | 0.00 | 0.00 | 0.00 | 87 | 1015.5 |
| 20260831122554 | 81 | 86 | 1.7 | 3.5 | 0.00 | 0.00 | 0.00 | 87 | 1015.3 |
| 20260831121831 | 81 | 329 | 0.9 | 3.5 | 0.00 | 0.00 | 0.00 | 87 | 1015.4 |
| 20260831121601 | 80 | 91 | 0.9 | 2.6 | 0.00 | 0.00 | 0.00 | 86 | 1015.5 |
| 20260831121331 | 81 | 179 | 1.7 | 3.5 | 0.00 | 0.00 | 0.00 | 86 | 1015.2 |
| 20260831120831 | 81 | 231 | 1.7 | 2.6 | 0.00 | 0.00 | 0.00 | 86 | 1015.1 |
| 20260831120329 | 81 | 127 | 0.9 | 2.6 | 0.00 | 0.00 | 0.00 | 86 | 1015.1 |
| 20260831120057 | 81 | 191 | 0.9 | 2.6 | 0.00 | 0.00 | 0.00 | 86 | 1015.2 |
| 20260831115829 | 81 | 332 | 0.9 | 2.6 | 0.00 | 0.00 | 0.00 | 86 | 1015.0 |
| 20260831115329 | 81 | 216 | 0.9 | 4.3 | 0.00 | 0.00 | 0.00 | 86 | 1015.0 |
| 20260831114829 | 81 | 300 | 0.9 | 4.3 | 0.00 | 0.00 | 0.00 | 86 | 1015.0 |
| 20260831114606 | 81 | 288 | 0.9 | 2.6 | 0.00 | 0.00 | 0.00 | 85 | 1015.2 |
| 20260831114329 | 81 | 323 | 0.9 | 2.6 | 0.00 | 0.00 | 0.00 | 86 | 1015.0 |
| 20260831113828 | 81 | 262 | 0.0 | 3.5 | 0.00 | 0.00 | 0.00 | 86 | 1014.9 |
| 20260831113328 | 81 | 179 | 0.9 | 3.5 | 0.00 | 0.00 | 0.00 | 85 | 1014.9 |
| 20260831113052 | 81 | 248 | 0.9 | 3.5 | 0.00 | 0.00 | 0.00 | 85 | 1015.1 |
| 20260831112828 | 82 | 13 | 0.9 | 2.6 | 0.00 | 0.00 | 0.00 | 85 | 1015.0 |
| 20260831112329 | 82 | 20 | 0.9 | 3.5 | 0.00 | 0.00 | 0.00 | 85 | 1015.0 |
| 20260831111829 | 82 | 193 | 0.9 | 3.5 | 0.00 | 0.00 | 0.00 | 85 | 1015.1 |
| 20260831111612 | 81 | 295 | 0.0 | 3.5 | 0.00 | 0.00 | 0.00 | 85 | 1015.2 |
| 20260831111328 | 81 | 231 | 0.0 | 2.6 | 0.00 | 0.00 | 0.00 | 85 | 1015.0 |
| 20260831110829 | 82 | 169 | 0.9 | 1.7 | 0.00 | 0.00 | 0.00 | 85 | 1015.0 |
| 20260831110329 | 82 | 276 | 0.9 | 2.6 | 0.00 | 0.00 | 0.00 | 85 | 1015.0 |
| 20260831110151 | 81 | 35 | 0.0 | 3.5 | 0.00 | 0.00 | 0.00 | 85 | 1015.2 |
| 20260831105829 | 82 | 231 | 0.0 | 3.5 | 0.00 | 0.00 | 0.00 | 85 | 1015.0 |
| 20260831105329 | 82 | 236 | 0.9 | 3.5 | 0.00 | 0.00 | 0.00 | 85 | 1014.8 |
| 20260831104829 | 82 | 91 | 0.9 | 3.5 | 0.00 | 0.00 | 0.00 | 85 | 1015.0 |
| 20260831104605 | 82 | 187 | 1.7 | 4.3 | 0.00 | 0.00 | 0.00 | 85 | 1015.0 |
| 20260831104551 | 81 | 250 | 1.7 | 2.6 | 0.00 | 0.00 | 0.00 | 84 | 1015.1 |
| 20260831104052 | 82 | 145 | 0.0 | 4.3 | 0.00 | 0.00 | 0.00 | 84 | 1014.9 |
| 20260831103553 | 82 | 153 | 0.9 | 3.5 | 0.00 | 0.00 | 0.00 | 85 | 1014.8 |
| 20260831103101 | 82 | 49 | 0.9 | 4.3 | 0.00 | 0.00 | 0.00 | 84 | 1015.1 |
| 20260831102829 | 82 | 82 | 1.7 | 4.3 | 0.00 | 0.00 | 0.00 | 84 | 1014.8 |
| 20260831102325 | 82 | 230 | 0.9 | 4.3 | 0.00 | 0.00 | 0.00 | 84 | 1014.9 |
| 20260831102044 | 82 | 296 | 0.9 | 4.3 | 0.00 | 0.00 | 0.00 | 84 | 1014.9 |
| 20260831101555 | 82 | 231 | 1.7 | 4.3 | 0.00 | 0.00 | 0.00 | 84 | 1015.0 |
| 20260831101317 | 82 | 338 | 1.7 | 4.3 | 0.00 | 0.00 | 0.00 | 84 | 1014.9 |
| 20260831100812 | 82 | 65 | 1.7 | 3.5 | 0.00 | 0.00 | 0.00 | 84 | 1014.8 |
| 20260831100306 | 82 | 295 | 0.9 | 4.3 | 0.00 | 0.00 | 0.00 | 84 | 1014.9 |
| 20260831100104 | 82 | 0 | 0.9 | 4.3 | 0.00 | 0.00 | 0.00 | 83 | 1015.0 |
| 20260831095807 | 83 | 113 | 0.9 | 4.3 | 0.00 | 0.00 | 0.00 | 84 | 1014.9 |
| 20260831095305 | 83 | 176 | 0.9 | 5.2 | 0.00 | 0.00 | 0.00 | 84 | 1015.1 |
| 20260831095025 | 83 | 250 | 1.7 | 5.2 | 0.00 | 0.00 | 0.00 | 84 | 1015.0 |
| 20260831094602 | 82 | 165 | 1.7 | 4.3 | 0.00 | 0.00 | 0.00 | 83 | 1015.3 |
| 20260831094533 | 83 | 14 | 0.9 | 3.5 | 0.00 | 0.00 | 0.00 | 84 | 1015.0 |
| 20260831094023 | 83 | 355 | 1.7 | 3.5 | 0.00 | 0.00 | 0.00 | 84 | 1015.1 |
| 20260831093253 | 83 | 288 | 1.7 | 3.5 | 0.00 | 0.00 | 0.00 | 84 | 1015.1 |
| 20260831093103 | 82 | 98 | 0.9 | 7.0 | 0.00 | 0.00 | 0.00 | 84 | 1015.2 |
| 20260831092750 | 83 | 345 | 1.7 | 3.5 | 0.00 | 0.00 | 0.00 | 84 | 1015.0 |
| 20260831092246 | 83 | 341 | 0.9 | 3.5 | 0.00 | 0.00 | 0.00 | 84 | 1014.8 |
| 20260831091741 | 83 | 18 | 2.6 | 3.5 | 0.00 | 0.00 | 0.00 | 84 | 1014.9 |
| 20260831091557 | 82 | 303 | 0.9 | 3.5 | 0.00 | 0.00 | 0.00 | 83 | 1015.1 |
| 20260831091238 | 83 | 152 | 1.7 | 4.3 | 0.00 | 0.00 | 0.00 | 84 | 1015.0 |
| 20260831090957 | 83 | 41 | 0.9 | 4.3 | 0.00 | 0.00 | 0.00 | 83 | 1014.9 |
| 20260831090455 | 83 | 63 | 2.6 | 4.3 | 0.00 | 0.00 | 0.00 | 83 | 1015.0 |
| 20260831085732 | 83 | 288 | 0.9 | 5.2 | 0.00 | 0.00 | 0.00 | 83 | 1014.9 |
| 20260831085450 | 83 | 280 | 2.6 | 10.4 | 0.00 | 0.00 | 0.00 | 83 | 1014.9 |
| 20260831085433 | 83 | 171 | 1.7 | 6.1 | 0.00 | 0.00 | 0.00 | 83 | 1015.0 |
| 20260831084604 | 83 | 186 | 1.7 | 10.4 | 0.00 | 0.00 | 0.00 | 82 | 1015.1 |
| 20260831084229 | 83 | 129 | 1.7 | 10.4 | 0.00 | 0.00 | 0.00 | 83 | 1014.9 |
| 20260831083729 | 83 | 24 | 1.7 | 7.0 | 0.00 | 0.00 | 0.00 | 83 | 1015.0 |
| 20260831083229 | 83 | 149 | 2.6 | 7.0 | 0.00 | 0.00 | 0.00 | 82 | 1015.1 |
| 20260831083057 | 83 | 253 | 2.6 | 7.0 | 0.00 | 0.00 | 0.00 | 82 | 1015.3 |
| 20260831082725 | 83 | 6 | 1.7 | 7.0 | 0.00 | 0.00 | 0.00 | 82 | 1015.1 |
| 20260831082221 | 83 | 138 | 1.7 | 7.0 | 0.00 | 0.00 | 0.00 | 82 | 1015.1 |
| 20260831082002 | 84 | 275 | 0.9 | 7.8 | 0.00 | 0.00 | 0.00 | 82 | 1015.3 |
| 20260831081634 | 83 | 213 | 1.7 | 7.8 | 0.00 | 0.00 | 0.00 | 81 | 1015.3 |
| 20260831081213 | 84 | 282 | 3.5 | 7.8 | 0.00 | 0.00 | 0.00 | 82 | 1015.3 |
| 20260831080709 | 84 | 220 | 3.5 | 7.0 | 0.00 | 0.00 | 0.00 | 82 | 1015.4 |
| 20260831080204 | 84 | 85 | 2.6 | 5.2 | 0.00 | 0.00 | 0.00 | 82 | 1015.3 |
| 20260831075702 | 84 | 357 | 3.5 | 7.0 | 0.00 | 0.00 | 0.00 | 83 | 1015.2 |
| 20260831075203 | 84 | 302 | 3.5 | 7.0 | 0.00 | 0.00 | 0.00 | 83 | 1015.3 |
| 20260831074703 | 84 | 32 | 0.9 | 4.3 | 0.00 | 0.00 | 0.00 | 83 | 1015.5 |
| 20260831074602 | 83 | 250 | 1.7 | 4.3 | 0.00 | 0.00 | 0.00 | 82 | 1015.7 |
| 20260831074424 | 84 | 23 | 1.7 | 4.3 | 0.00 | 0.00 | 0.00 | 83 | 1015.6 |
| 20260831073702 | 84 | 239 | 1.7 | 4.3 | 0.00 | 0.00 | 0.00 | 83 | 1015.7 |
| 20260831073158 | 84 | 136 | 0.9 | 5.2 | 0.00 | 0.00 | 0.00 | 83 | 1015.7 |
| 20260831073156 | 83 | 197 | 0.9 | 5.2 | 0.00 | 0.00 | 0.00 | 82 | 1015.8 |
| 20260831072655 | 84 | 17 | 1.7 | 5.2 | 0.00 | 0.00 | 0.00 | 83 | 1015.7 |
| 20260831072415 | 84 | 231 | 1.7 | 4.3 | 0.00 | 0.00 | 0.00 | 83 | 1015.7 |
| 20260831071647 | 84 | 97 | 1.7 | 6.1 | 0.00 | 0.00 | 0.00 | 83 | 1015.7 |
| 20260831071601 | 83 | 290 | 1.7 | 6.1 | 0.00 | 0.00 | 0.00 | 82 | 1015.9 |
| 20260831071142 | 84 | 108 | 1.7 | 6.1 | 0.00 | 0.00 | 0.00 | 83 | 1015.8 |
| 20260831070638 | 84 | 130 | 1.7 | 4.3 | 0.00 | 0.00 | 0.00 | 83 | 1015.8 |
| 20260831070133 | 84 | 87 | 1.7 | 4.3 | 0.00 | 0.00 | 0.00 | 82 | 1015.9 |
| 20260831070108 | 83 | 120 | 0.9 | 7.0 | 0.00 | 0.00 | 0.00 | 82 | 1016.1 |
| 20260831065837 | 84 | 207 | 3.5 | 6.1 | 0.00 | 0.00 | 0.00 | 82 | 1016.0 |
| 20260831065823 | 84 | 39 | 1.7 | 6.1 | 0.00 | 0.00 | 0.00 | 82 | 1015.9 |
| 20260831064854 | 84 | 214 | 1.7 | 6.1 | 0.00 | 0.00 | 0.00 | 82 | 1016.0 |
| 20260831064607 | 84 | 104 | 1.7 | 7.0 | 0.00 | 0.00 | 0.00 | 82 | 1016.2 |
| 20260831064129 | 84 | 257 | 1.7 | 7.0 | 0.00 | 0.00 | 0.00 | 82 | 1016.1 |
| 20260831063628 | 84 | 51 | 2.6 | 7.0 | 0.00 | 0.00 | 0.00 | 82 | 1016.0 |
| 20260831063128 | 84 | 160 | 0.0 | 5.2 | 0.00 | 0.00 | 0.00 | 82 | 1016.0 |
| 20260831063056 | 84 | 0 | 0.9 | 6.1 | 0.00 | 0.00 | 0.00 | 81 | 1016.3 |
| 20260831062858 | 84 | 51 | 2.6 | 5.2 | 0.00 | 0.00 | 0.00 | 81 | 1015.9 |
| 20260831062128 | 84 | 51 | 1.7 | 5.2 | 0.00 | 0.00 | 0.00 | 81 | 1015.9 |
| 20260831061629 | 84 | 216 | 1.7 | 6.1 | 0.00 | 0.00 | 0.00 | 81 | 1015.9 |
| 20260831061554 | 84 | 198 | 1.7 | 7.0 | 0.00 | 0.00 | 0.00 | 81 | 1016.1 |
| 20260831061129 | 84 | 195 | 1.7 | 6.1 | 0.00 | 0.00 | 0.00 | 81 | 1016.0 |
| 20260831060630 | 85 | 345 | 1.7 | 5.2 | 0.00 | 0.00 | 0.00 | 81 | 1016.0 |
| 20260831060129 | 85 | 321 | 1.7 | 5.2 | 0.00 | 0.00 | 0.00 | 80 | 1016.1 |
| 20260831060115 | 84 | 257 | 0.9 | 7.0 | 0.00 | 0.00 | 0.00 | 80 | 1016.3 |
| 20260831055629 | 85 | 39 | 1.7 | 5.2 | 0.00 | 0.00 | 0.00 | 80 | 1016.1 |
| 20260831055129 | 85 | 276 | 2.6 | 9.6 | 0.00 | 0.00 | 0.00 | 80 | 1016.1 |
| 20260831054631 | 85 | 268 | 1.7 | 9.6 | 0.00 | 0.00 | 0.00 | 80 | 1016.1 |
| 20260831054612 | 84 | 77 | 1.7 | 9.6 | 0.00 | 0.00 | 0.00 | 79 | 1016.4 |
| 20260831054131 | 85 | 0 | 2.6 | 7.8 | 0.00 | 0.00 | 0.00 | 80 | 1016.1 |
| 20260831053632 | 85 | 330 | 3.5 | 7.0 | 0.00 | 0.00 | 0.00 | 80 | 1016.0 |
| 20260831053131 | 85 | 200 | 3.5 | 7.8 | 0.00 | 0.00 | 0.00 | 80 | 1016.1 |
| 20260831053104 | 85 | 175 | 2.6 | 7.0 | 0.00 | 0.00 | 0.00 | 79 | 1016.3 |
| 20260831052629 | 85 | 316 | 3.5 | 7.8 | 0.00 | 0.00 | 0.00 | 80 | 1016.0 |
| 20260831052128 | 85 | 49 | 1.7 | 5.2 | 0.00 | 0.00 | 0.00 | 80 | 1016.0 |
| 20260831052117 | 85 | 25 | 2.6 | 6.1 | 0.00 | 0.00 | 0.00 | 80 | 1015.9 |
| 20260831051559 | 85 | 136 | 1.7 | 7.0 | 0.00 | 0.00 | 0.00 | 79 | 1016.2 |
| 20260831051129 | 85 | 316 | 2.6 | 7.8 | 0.00 | 0.00 | 0.00 | 80 | 1016.0 |
| 20260831050628 | 85 | 141 | 3.5 | 7.8 | 0.00 | 0.00 | 0.00 | 80 | 1016.0 |
| 20260831050141 | 85 | 285 | 1.7 | 7.0 | 0.00 | 0.00 | 0.00 | 79 | 1016.3 |
| 20260831050128 | 85 | 114 | 2.6 | 6.1 | 0.00 | 0.00 | 0.00 | 80 | 1016.0 |
| 20260831045628 | 85 | 326 | 2.6 | 6.1 | 0.00 | 0.00 | 0.00 | 79 | 1016.1 |
| 20260831045612 | 85 | 321 | 2.6 | 8.7 | 0.00 | 0.00 | 0.00 | 79 | 1016.1 |
| 20260831044631 | 85 | 237 | 3.5 | 8.7 | 0.00 | 0.00 | 0.00 | 79 | 1016.1 |
| 20260831044605 | 85 | 235 | 2.6 | 7.0 | 0.00 | 0.00 | 0.00 | 78 | 1016.2 |
| 20260831044131 | 85 | 139 | 3.5 | 7.0 | 0.00 | 0.00 | 0.00 | 79 | 1016.1 |
| 20260831043855 | 85 | 69 | 3.5 | 7.0 | 0.00 | 0.00 | 0.00 | 78 | 1016.1 |
| 20260831043130 | 85 | 265 | 3.5 | 7.0 | 0.00 | 0.00 | 0.00 | 78 | 1016.2 |
| 20260831043116 | 85 | 17 | 3.5 | 7.0 | 0.00 | 0.00 | 0.00 | 78 | 1016.3 |
| 20260831043108 | 85 | 91 | 2.6 | 7.0 | 0.00 | 0.00 | 0.00 | 77 | 1016.3 |
| 20260831042129 | 85 | 326 | 3.5 | 7.0 | 0.00 | 0.00 | 0.00 | 77 | 1016.1 |
| 20260831041631 | 85 | 215 | 2.6 | 7.0 | 0.00 | 0.00 | 0.00 | 77 | 1016.2 |
| 20260831041608 | 85 | 45 | 1.7 | 7.0 | 0.00 | 0.00 | 0.00 | 76 | 1016.2 |
| 20260831041131 | 85 | 96 | 3.5 | 7.8 | 0.00 | 0.00 | 0.00 | 76 | 1016.0 |
| 20260831040644 | 86 | 121 | 2.6 | 7.8 | 0.00 | 0.00 | 0.00 | 76 | 1015.8 |
| 20260831040126 | 86 | 162 | 3.5 | 6.1 | 0.00 | 0.00 | 0.00 | 76 | 1015.8 |
| 20260831040107 | 85 | 350 | 2.6 | 7.8 | 0.00 | 0.00 | 0.00 | 75 | 1016.0 |
| 20260831035624 | 86 | 319 | 1.7 | 6.1 | 0.00 | 0.00 | 0.00 | 76 | 1015.7 |
| 20260831035125 | 86 | 134 | 4.3 | 7.0 | 0.00 | 0.00 | 0.00 | 75 | 1015.6 |
| 20260831034620 | 86 | 6 | 3.5 | 7.8 | 0.00 | 0.00 | 0.00 | 75 | 1015.6 |
| 20260831034600 | 86 | 283 | 3.5 | 7.8 | 0.00 | 0.00 | 0.00 | 74 | 1015.7 |
| 20260831034340 | 86 | 207 | 1.7 | 7.8 | 0.00 | 0.00 | 0.00 | 74 | 1015.4 |
| 20260831033837 | 86 | 167 | 2.6 | 8.7 | 0.00 | 0.00 | 0.00 | 74 | 1015.4 |
| 20260831033343 | 86 | 182 | 3.5 | 8.7 | 0.00 | 0.00 | 0.00 | 73 | 1015.3 |
| 20260831033052 | 86 | 207 | 3.5 | 7.8 | 0.00 | 0.00 | 0.00 | 73 | 1015.5 |
| 20260831032608 | 87 | 194 | 2.6 | 7.0 | 0.00 | 0.00 | 0.00 | 73 | 1015.2 |
| 20260831032104 | 87 | 53 | 4.3 | 7.8 | 0.00 | 0.00 | 0.00 | 72 | 1015.2 |
| 20260831031604 | 87 | 319 | 3.5 | 7.8 | 0.00 | 0.00 | 0.00 | 72 | 1015.2 |
| 20260831031601 | 86 | 235 | 3.5 | 9.6 | 0.00 | 0.00 | 0.00 | 71 | 1015.4 |
| 20260831031104 | 87 | 244 | 3.5 | 9.6 | 0.00 | 0.00 | 0.00 | 72 | 1015.2 |
| 20260831030603 | 87 | 126 | 5.2 | 9.6 | 0.00 | 0.00 | 0.00 | 71 | 1015.0 |
| 20260831030106 | 87 | 233 | 3.5 | 9.6 | 0.00 | 0.00 | 0.00 | 70 | 1015.1 |
| 20260831025604 | 87 | 333 | 3.5 | 7.8 | 0.00 | 0.00 | 0.00 | 70 | 1014.7 |
| 20260831025101 | 87 | 113 | 4.3 | 7.8 | 0.00 | 0.00 | 0.00 | 70 | 1014.6 |
| 20260831024603 | 88 | 27 | 3.5 | 11.3 | 0.00 | 0.00 | 0.00 | 69 | 1014.6 |
| 20260831024101 | 88 | 27 | 4.3 | 11.3 | 0.00 | 0.00 | 0.00 | 68 | 1014.5 |
| 20260831023602 | 88 | 322 | 3.5 | 7.0 | 0.00 | 0.00 | 0.00 | 68 | 1014.3 |
| 20260831023103 | 88 | 256 | 3.5 | 7.8 | 0.00 | 0.00 | 0.00 | 67 | 1014.3 |
| 20260831023100 | 88 | 360 | 2.6 | 8.7 | 0.00 | 0.00 | 0.00 | 67 | 1014.5 |
| 20260831022602 | 88 | 96 | 3.5 | 8.7 | 0.00 | 0.00 | 0.00 | 67 | 1014.2 |
| 20260831022101 | 89 | 153 | 4.3 | 8.7 | 0.00 | 0.00 | 0.00 | 66 | 1014.3 |
| 20260831021601 | 89 | 47 | 1.7 | 8.7 | 0.00 | 0.00 | 0.00 | 66 | 1014.2 |
| 20260831021558 | 88 | 148 | 1.7 | 8.7 | 0.00 | 0.00 | 0.00 | 66 | 1014.4 |
| 20260831021334 | 89 | 109 | 5.2 | 8.7 | 0.00 | 0.00 | 0.00 | 66 | 1014.2 |
| 20260831020838 | 89 | 74 | 4.3 | 9.6 | 0.00 | 0.00 | 0.00 | 66 | 1014.1 |
| 20260831020116 | 89 | 219 | 3.5 | 10.4 | 0.00 | 0.00 | 0.00 | 65 | 1013.9 |
| 20260831020108 | 89 | 330 | 3.5 | 10.4 | 0.00 | 0.00 | 0.00 | 64 | 1014.1 |
| 20260831015603 | 89 | 274 | 5.2 | 10.4 | 0.00 | 0.00 | 0.00 | 64 | 1013.8 |
| 20260831015103 | 90 | 318 | 4.3 | 7.0 | 0.00 | 0.00 | 0.00 | 64 | 1013.8 |
| 20260831014604 | 90 | 260 | 2.6 | 7.0 | 0.00 | 0.00 | 0.00 | 63 | 1014.0 |
| 20260831014602 | 90 | 212 | 2.6 | 7.0 | 0.00 | 0.00 | 0.00 | 64 | 1013.8 |
| 20260831014103 | 90 | 220 | 2.6 | 8.7 | 0.00 | 0.00 | 0.00 | 63 | 1013.8 |
| 20260831013827 | 91 | 335 | 3.5 | 8.7 | 0.00 | 0.00 | 0.00 | 63 | 1013.7 |
| 20260831013556 | 91 | 257 | 4.3 | 8.7 | 0.00 | 0.00 | 0.00 | 62 | 1013.7 |
| 20260831013100 | 90 | 321 | 3.5 | 8.7 | 0.00 | 0.00 | 0.00 | 62 | 1013.8 |
| 20260831012603 | 91 | 236 | 4.3 | 8.7 | 0.00 | 0.00 | 0.00 | 62 | 1013.7 |
| 20260831012102 | 91 | 323 | 5.2 | 8.7 | 0.00 | 0.00 | 0.00 | 61 | 1013.7 |
| 20260831012049 | 92 | 355 | 5.2 | 10.4 | 0.00 | 0.00 | 0.00 | 60 | 1013.7 |
| 20260831011604 | 91 | 169 | 4.3 | 9.6 | 0.00 | 0.00 | 0.00 | 60 | 1013.9 |
| 20260831011102 | 92 | 186 | 5.2 | 10.4 | 0.00 | 0.00 | 0.00 | 59 | 1013.6 |
| 20260831010602 | 92 | 60 | 5.2 | 10.4 | 0.00 | 0.00 | 0.00 | 58 | 1013.7 |
| 20260831010104 | 92 | 355 | 5.2 | 9.6 | 0.00 | 0.00 | 0.00 | 57 | 1013.7 |
| 20260831005602 | 93 | 114 | 6.1 | 9.6 | 0.00 | 0.00 | 0.00 | 57 | 1013.5 |
| 20260831005102 | 93 | 133 | 4.3 | 8.7 | 0.00 | 0.00 | 0.00 | 57 | 1013.3 |
| 20260831004616 | 93 | 340 | 4.3 | 10.4 | 0.00 | 0.00 | 0.00 | 56 | 1013.3 |
| 20260831004601 | 93 | 250 | 5.2 | 10.4 | 0.00 | 0.00 | 0.00 | 57 | 1013.1 |
| 20260831004104 | 94 | 123 | 3.5 | 10.4 | 0.00 | 0.00 | 0.00 | 56 | 1013.0 |
| 20260831003604 | 94 | 111 | 3.5 | 10.4 | 0.00 | 0.00 | 0.00 | 55 | 1012.8 |
| 20260831003107 | 94 | 288 | 4.3 | 9.6 | 0.00 | 0.00 | 0.00 | 53 | 1013.1 |
| 20260831003103 | 94 | 255 | 4.3 | 10.4 | 0.00 | 0.00 | 0.00 | 54 | 1012.9 |
| 20260831002603 | 95 | 200 | 5.2 | 9.6 | 0.00 | 0.00 | 0.00 | 53 | 1012.8 |
| 20260831002102 | 95 | 256 | 4.3 | 8.7 | 0.00 | 0.00 | 0.00 | 53 | 1012.8 |
| 20260831001604 | 95 | 2 | 4.3 | 9.6 | 0.00 | 0.00 | 0.00 | 51 | 1012.9 |
| 20260831001601 | 95 | 210 | 5.2 | 9.6 | 0.00 | 0.00 | 0.00 | 52 | 1012.7 |
| 20260831001340 | 96 | 310 | 4.3 | 9.6 | 0.00 | 0.00 | 0.00 | 51 | 1012.6 |
| 20260831000602 | 96 | 311 | 4.3 | 8.7 | 0.00 | 0.00 | 0.00 | 50 | 1012.5 |
| 20260831000104 | 96 | 56 | 3.5 | 11.3 | 0.00 | 0.00 | 0.00 | 50 | 1012.8 |
| 20260830235602 | 97 | 176 | 5.2 | 11.3 | 0.00 | 0.00 | 0.00 | 50 | 1012.5 |
| 20260830235337 | 97 | 160 | 4.3 | 9.6 | 0.00 | 0.00 | 0.00 | 49 | 1012.6 |
| 20260830234602 | 98 | 201 | 3.5 | 9.6 | 0.00 | 0.00 | 0.00 | 48 | 1012.5 |
| 20260830234103 | 98 | 245 | 1.7 | 9.6 | 0.00 | 0.00 | 0.00 | 47 | 1012.5 |
| 20260830233602 | 98 | 214 | 3.5 | 9.6 | 0.00 | 0.00 | 0.00 | 48 | 1012.4 |
| 20260830233328 | 98 | 264 | 5.2 | 9.6 | 0.00 | 0.00 | 0.00 | 47 | 1012.4 |
| 20260830233108 | 97 | 190 | 5.2 | 11.3 | 0.00 | 0.00 | 0.00 | 47 | 1012.5 |
| 20260830232602 | 98 | 26 | 4.3 | 9.6 | 0.00 | 0.00 | 0.00 | 47 | 1012.3 |
| 20260830232326 | 99 | 184 | 3.5 | 9.6 | 0.00 | 0.00 | 0.00 | 47 | 1012.3 |
| 20260830231603 | 99 | 152 | 2.6 | 9.6 | 0.00 | 0.00 | 0.00 | 45 | 1012.5 |
| 20260830231601 | 100 | 58 | 3.5 | 9.6 | 0.00 | 0.00 | 0.00 | 46 | 1012.4 |
| 20260830231103 | 100 | 32 | 3.5 | 7.8 | 0.00 | 0.00 | 0.00 | 46 | 1012.3 |
| 20260830230604 | 100 | 124 | 2.6 | 8.7 | 0.00 | 0.00 | 0.00 | 46 | 1012.4 |
| 20260830230116 | 100 | 64 | 3.5 | 8.7 | 0.00 | 0.00 | 0.00 | 47 | 1012.3 |
| 20260830230100 | 99 | 304 | 2.6 | 8.7 | 0.00 | 0.00 | 0.00 | 46 | 1012.3 |
| 20260830225604 | 100 | 330 | 3.5 | 8.7 | 0.00 | 0.00 | 0.00 | 46 | 1012.2 |
| 20260830225103 | 100 | 297 | 4.3 | 8.7 | 0.00 | 0.00 | 0.00 | 46 | 1012.2 |
| 20260830224606 | 100 | 288 | 3.5 | 8.7 | 0.00 | 0.00 | 0.00 | 44 | 1012.4 |
| 20260830224603 | 100 | 288 | 4.3 | 7.8 | 0.00 | 0.00 | 0.00 | 44 | 1012.1 |
| 20260830224104 | 101 | 37 | 4.3 | 7.8 | 0.00 | 0.00 | 0.00 | 45 | 1012.1 |
| 20260830223604 | 101 | 130 | 3.5 | 10.4 | 0.00 | 0.00 | 0.00 | 45 | 1012.0 |
| 20260830223104 | 101 | 258 | 5.2 | 11.3 | 0.00 | 0.00 | 0.00 | 43 | 1012.1 |
| 20260830223055 | 100 | 252 | 5.2 | 11.3 | 0.00 | 0.00 | 0.00 | 43 | 1012.3 |
| 20260830222603 | 101 | 191 | 4.3 | 11.3 | 0.00 | 0.00 | 0.00 | 42 | 1011.9 |
| 20260830222326 | 101 | 250 | 5.2 | 9.6 | 0.00 | 0.00 | 0.00 | 42 | 1011.9 |
| 20260830221603 | 102 | 198 | 4.3 | 8.7 | 0.00 | 0.00 | 0.00 | 41 | 1012.2 |
| 20260830221104 | 102 | 39 | 4.3 | 8.7 | 0.00 | 0.00 | 0.00 | 42 | 1012.0 |
| 20260830220604 | 103 | 56 | 3.5 | 7.0 | 0.00 | 0.00 | 0.00 | 41 | 1011.9 |
| 20260830220328 | 103 | 19 | 3.5 | 7.0 | 0.00 | 0.00 | 0.00 | 40 | 1011.9 |
| 20260830220105 | 102 | 173 | 2.6 | 6.1 | 0.00 | 0.00 | 0.00 | 39 | 1012.1 |
| 20260830215606 | 103 | 148 | 1.7 | 7.8 | 0.00 | 0.00 | 0.00 | 40 | 1012.1 |
| 20260830215104 | 102 | 108 | 3.5 | 7.8 | 0.00 | 0.00 | 0.00 | 41 | 1011.9 |
| 20260830214603 | 102 | 41 | 4.3 | 7.0 | 0.00 | 0.00 | 0.00 | 41 | 1012.0 |
| 20260830214553 | 101 | 122 | 3.5 | 7.8 | 0.00 | 0.00 | 0.00 | 40 | 1012.2 |
| 20260830214103 | 101 | 245 | 2.6 | 8.7 | 0.00 | 0.00 | 0.00 | 42 | 1012.1 |
| 20260830213830 | 101 | 113 | 4.3 | 8.7 | 0.00 | 0.00 | 0.00 | 41 | 1012.1 |
| 20260830213105 | 102 | 236 | 3.5 | 9.6 | 0.00 | 0.00 | 0.00 | 41 | 1012.2 |
| 20260830213056 | 101 | 120 | 4.3 | 11.3 | 0.00 | 0.00 | 0.00 | 41 | 1012.3 |
| 20260830212604 | 102 | 194 | 3.5 | 12.2 | 0.00 | 0.00 | 0.00 | 41 | 1012.1 |
| 20260830212105 | 102 | 8 | 1.7 | 12.2 | 0.00 | 0.00 | 0.00 | 42 | 1012.4 |
| 20260830211559 | 101 | 222 | 6.1 | 10.4 | 0.00 | 0.00 | 0.00 | 43 | 1012.3 |
| 20260830211555 | 101 | 257 | 5.2 | 10.4 | 0.00 | 0.00 | 0.00 | 43 | 1012.5 |
| 20260830211055 | 101 | 234 | 4.3 | 9.6 | 0.00 | 0.00 | 0.00 | 43 | 1012.5 |
| 20260830210815 | 101 | 129 | 5.2 | 10.4 | 0.00 | 0.00 | 0.00 | 43 | 1012.6 |
| 20260830210107 | 101 | 342 | 3.5 | 10.4 | 0.00 | 0.00 | 0.00 | 43 | 1012.7 |
| 20260830210045 | 101 | 342 | 4.3 | 10.4 | 0.00 | 0.00 | 0.00 | 43 | 1012.6 |
| 20260830205541 | 101 | 300 | 2.6 | 5.2 | 0.00 | 0.00 | 0.00 | 44 | 1012.7 |
| 20260830205036 | 101 | 359 | 2.6 | 7.0 | 0.00 | 0.00 | 0.00 | 40 | 1012.8 |
| 20260830204756 | 102 | 110 | 1.7 | 7.0 | 0.00 | 0.00 | 0.00 | 40 | 1012.9 |
| 20260830204618 | 102 | 293 | 1.7 | 7.8 | 0.00 | 0.00 | 0.00 | 40 | 1013.1 |
| 20260830204029 | 103 | 318 | 3.5 | 7.8 | 0.00 | 0.00 | 0.00 | 40 | 1013.0 |
| 20260830203530 | 103 | 269 | 5.2 | 7.8 | 0.00 | 0.00 | 0.00 | 40 | 1013.0 |
| 20260830203059 | 102 | 222 | 1.7 | 8.7 | 0.00 | 0.00 | 0.00 | 40 | 1013.4 |
| 20260830203029 | 103 | 288 | 1.7 | 4.3 | 0.00 | 0.00 | 0.00 | 40 | 1013.2 |
| 20260830202529 | 102 | 252 | 1.7 | 7.0 | 0.00 | 0.00 | 0.00 | 39 | 1013.3 |
| 20260830202028 | 103 | 44 | 3.5 | 7.8 | 0.00 | 0.00 | 0.00 | 39 | 1013.5 |
| 20260830201630 | 103 | 217 | 1.7 | 7.0 | 0.00 | 0.00 | 0.00 | 39 | 1013.6 |
| 20260830201529 | 103 | 252 | 1.7 | 7.8 | 0.00 | 0.00 | 0.00 | 39 | 1013.4 |
| 20260830201029 | 103 | 283 | 2.6 | 6.1 | 0.00 | 0.00 | 0.00 | 40 | 1013.6 |
| 20260830200526 | 103 | 98 | 1.7 | 6.1 | 0.00 | 0.00 | 0.00 | 39 | 1013.6 |
| 20260830200021 | 103 | 356 | 2.6 | 7.0 | 0.00 | 0.00 | 0.00 | 40 | 1013.7 |
| 20260830195516 | 103 | 195 | 3.5 | 6.1 | 0.00 | 0.00 | 0.00 | 39 | 1013.7 |
| 20260830195011 | 103 | 296 | 2.6 | 7.0 | 0.00 | 0.00 | 0.00 | 40 | 1014.0 |
| 20260830194602 | 103 | 262 | 2.6 | 7.0 | 0.00 | 0.00 | 0.00 | 39 | 1014.4 |
| 20260830194507 | 103 | 338 | 2.6 | 7.8 | 0.00 | 0.00 | 0.00 | 39 | 1014.1 |
| 20260830194224 | 103 | 167 | 3.5 | 7.8 | 0.00 | 0.00 | 0.00 | 39 | 1014.3 |
| 20260830193502 | 102 | 137 | 1.7 | 6.1 | 0.00 | 0.00 | 0.00 | 41 | 1014.2 |
| 20260830193058 | 102 | 178 | 1.7 | 6.1 | 0.00 | 0.00 | 0.00 | 39 | 1014.5 |
| 20260830193002 | 102 | 181 | 1.7 | 7.0 | 0.00 | 0.00 | 0.00 | 42 | 1014.4 |
| 20260830192729 | 101 | 139 | 3.5 | 7.0 | 0.00 | 0.00 | 0.00 | 42 | 1014.6 |
| 20260830192002 | 102 | 355 | 2.6 | 7.8 | 0.00 | 0.00 | 0.00 | 41 | 1014.6 |
| 20260830191628 | 102 | 213 | 1.7 | 7.8 | 0.00 | 0.00 | 0.00 | 40 | 1015.0 |
| 20260830191502 | 102 | 8 | 1.7 | 7.8 | 0.00 | 0.00 | 0.00 | 40 | 1014.8 |
| 20260830191002 | 102 | 72 | 2.6 | 7.0 | 0.00 | 0.00 | 0.00 | 43 | 1014.9 |
| 20260830190503 | 102 | 221 | 1.7 | 6.1 | 0.00 | 0.00 | 0.00 | 41 | 1015.0 |
| 20260830190108 | 101 | 246 | 1.7 | 7.8 | 0.00 | 0.00 | 0.00 | 40 | 1015.1 |
| 20260830190003 | 101 | 130 | 2.6 | 7.8 | 0.00 | 0.00 | 0.00 | 40 | 1015.1 |
| 20260830185503 | 101 | 131 | 5.2 | 7.8 | 0.00 | 0.00 | 0.00 | 42 | 1015.1 |
| 20260830185002 | 101 | 79 | 2.6 | 7.8 | 0.00 | 0.00 | 0.00 | 42 | 1015.2 |
| 20260830184604 | 99 | 170 | 2.6 | 7.0 | 0.00 | 0.00 | 0.00 | 45 | 1015.4 |
| 20260830184502 | 100 | 191 | 3.5 | 7.8 | 0.00 | 0.00 | 0.00 | 43 | 1015.2 |
| 20260830184002 | 101 | 276 | 2.6 | 7.8 | 0.00 | 0.00 | 0.00 | 42 | 1015.4 |
| 20260830183502 | 100 | 233 | 2.6 | 8.7 | 0.00 | 0.00 | 0.00 | 44 | 1015.4 |
| 20260830183056 | 99 | 262 | 3.5 | 7.8 | 0.00 | 0.00 | 0.00 | 44 | 1015.6 |
| 20260830183002 | 100 | 61 | 3.5 | 8.7 | 0.00 | 0.00 | 0.00 | 44 | 1015.4 |
| 20260830182502 | 99 | 238 | 4.3 | 7.8 | 0.00 | 0.00 | 0.00 | 47 | 1015.7 |
| 20260830182002 | 100 | 89 | 3.5 | 7.8 | 0.00 | 0.00 | 0.00 | 46 | 1015.7 |
| 20260830181554 | 99 | 240 | 2.6 | 11.3 | 0.00 | 0.00 | 0.00 | 46 | 1016.0 |
| 20260830181500 | 99 | 60 | 3.5 | 8.7 | 0.00 | 0.00 | 0.00 | 46 | 1015.8 |
| 20260830181240 | 99 | 271 | 4.3 | 12.2 | 0.00 | 0.00 | 0.00 | 48 | 1015.9 |
| 20260830180501 | 99 | 286 | 3.5 | 12.2 | 0.00 | 0.00 | 0.00 | 46 | 1016.0 |
| 20260830180056 | 98 | 125 | 3.5 | 10.4 | 0.00 | 0.00 | 0.00 | 46 | 1016.2 |
| 20260830180001 | 99 | 56 | 4.3 | 11.3 | 0.00 | 0.00 | 0.00 | 47 | 1016.0 |
| 20260830175501 | 99 | 291 | 2.6 | 8.7 | 0.00 | 0.00 | 0.00 | 47 | 1016.0 |
| 20260830175219 | 99 | 340 | 1.7 | 8.7 | 0.00 | 0.00 | 0.00 | 48 | 1016.1 |
| 20260830174601 | 98 | 127 | 1.7 | 7.0 | 0.00 | 0.00 | 0.00 | 47 | 1016.3 |
| 20260830174458 | 98 | 50 | 2.6 | 7.0 | 0.00 | 0.00 | 0.00 | 50 | 1016.2 |
| 20260830174216 | 98 | 344 | 3.5 | 7.8 | 0.00 | 0.00 | 0.00 | 48 | 1016.3 |
| 20260830173450 | 98 | 70 | 3.5 | 7.8 | 0.00 | 0.00 | 0.00 | 48 | 1016.3 |
| 20260830173055 | 97 | 331 | 1.7 | 9.6 | 0.00 | 0.00 | 0.00 | 51 | 1016.5 |
| 20260830172946 | 97 | 309 | 1.7 | 10.4 | 0.00 | 0.00 | 0.00 | 52 | 1016.4 |
| 20260830172703 | 97 | 150 | 3.5 | 10.4 | 0.00 | 0.00 | 0.00 | 50 | 1016.7 |
| 20260830171937 | 97 | 45 | 3.5 | 9.6 | 0.00 | 0.00 | 0.00 | 51 | 1016.7 |
| 20260830171553 | 96 | 265 | 2.6 | 8.7 | 0.00 | 0.00 | 0.00 | 52 | 1016.8 |
| 20260830171434 | 97 | 257 | 3.5 | 7.8 | 0.00 | 0.00 | 0.00 | 52 | 1016.7 |
| 20260830171150 | 96 | 284 | 3.5 | 7.8 | 0.00 | 0.00 | 0.00 | 53 | 1016.8 |
| 20260830170429 | 96 | 266 | 3.5 | 6.1 | 0.00 | 0.00 | 0.00 | 54 | 1016.7 |
| 20260830165929 | 96 | 300 | 2.6 | 7.0 | 0.00 | 0.00 | 0.00 | 56 | 1016.7 |
| 20260830165429 | 96 | 212 | 2.6 | 7.8 | 0.00 | 0.00 | 0.00 | 54 | 1016.9 |
| 20260830164928 | 95 | 235 | 3.5 | 7.8 | 0.00 | 0.00 | 0.00 | 55 | 1016.9 |
| 20260830164553 | 95 | 69 | 2.6 | 8.7 | 0.00 | 0.00 | 0.00 | 54 | 1017.2 |
| 20260830164428 | 95 | 28 | 2.6 | 7.8 | 0.00 | 0.00 | 0.00 | 54 | 1016.9 |
| 20260830163928 | 94 | 207 | 3.5 | 7.8 | 0.00 | 0.00 | 0.00 | 58 | 1017.0 |
| 20260830163429 | 95 | 302 | 4.3 | 7.0 | 0.00 | 0.00 | 0.00 | 56 | 1016.9 |
| 20260830163101 | 94 | 2 | 1.7 | 8.7 | 0.00 | 0.00 | 0.00 | 59 | 1017.2 |
| 20260830162928 | 94 | 264 | 2.6 | 9.6 | 0.00 | 0.00 | 0.00 | 58 | 1016.9 |
| 20260830162428 | 94 | 316 | 2.6 | 9.6 | 0.00 | 0.00 | 0.00 | 58 | 1017.0 |
| 20260830161931 | 94 | 46 | 3.5 | 5.2 | 0.00 | 0.00 | 0.00 | 59 | 1017.1 |
| 20260830161605 | 93 | 152 | 2.6 | 6.1 | 0.00 | 0.00 | 0.00 | 59 | 1017.4 |
| 20260830161429 | 94 | 285 | 2.6 | 5.2 | 0.00 | 0.00 | 0.00 | 60 | 1017.1 |
| 20260830160928 | 93 | 265 | 3.5 | 6.1 | 0.00 | 0.00 | 0.00 | 60 | 1017.2 |
| 20260830160651 | 92 | 33 | 2.6 | 7.0 | 0.00 | 0.00 | 0.00 | 62 | 1017.2 |
| 20260830160157 | 92 | 201 | 4.3 | 8.7 | 0.00 | 0.00 | 0.00 | 63 | 1017.2 |
| 20260830160057 | 92 | 224 | 3.5 | 8.7 | 0.00 | 0.00 | 0.00 | 62 | 1017.4 |
| 20260830155429 | 92 | 354 | 2.6 | 9.6 | 0.00 | 0.00 | 0.00 | 65 | 1017.2 |
| 20260830154930 | 91 | 1 | 3.5 | 9.6 | 0.00 | 0.00 | 0.00 | 64 | 1017.3 |
| 20260830154609 | 91 | 127 | 2.6 | 7.0 | 0.00 | 0.00 | 0.00 | 66 | 1017.5 |
| 20260830154428 | 91 | 243 | 4.3 | 7.8 | 0.00 | 0.00 | 0.00 | 65 | 1017.3 |
| 20260830153929 | 91 | 229 | 2.6 | 7.8 | 0.00 | 0.00 | 0.00 | 67 | 1017.2 |
| 20260830153649 | 90 | 11 | 1.7 | 8.7 | 0.00 | 0.00 | 0.00 | 68 | 1017.2 |
| 20260830153103 | 89 | 321 | 2.6 | 9.6 | 0.00 | 0.00 | 0.00 | 67 | 1017.3 |
| 20260830152929 | 90 | 338 | 3.5 | 8.7 | 0.00 | 0.00 | 0.00 | 68 | 1017.1 |
| 20260830152429 | 89 | 191 | 2.6 | 8.7 | 0.00 | 0.00 | 0.00 | 70 | 1017.1 |
| 20260830151929 | 89 | 291 | 4.3 | 8.7 | 0.00 | 0.00 | 0.00 | 69 | 1017.1 |
| 20260830151556 | 88 | 42 | 2.6 | 7.8 | 0.00 | 0.00 | 0.00 | 70 | 1017.2 |
| 20260830151428 | 89 | 86 | 2.6 | 7.8 | 0.00 | 0.00 | 0.00 | 71 | 1016.9 |
| 20260830150929 | 89 | 285 | 3.5 | 7.8 | 0.00 | 0.00 | 0.00 | 71 | 1016.9 |
| 20260830150429 | 88 | 281 | 2.6 | 7.8 | 0.00 | 0.00 | 0.00 | 73 | 1017.0 |
| 20260830150106 | 88 | 356 | 1.7 | 7.8 | 0.00 | 0.00 | 0.00 | 73 | 1017.3 |
| 20260830145929 | 88 | 216 | 1.7 | 7.0 | 0.00 | 0.00 | 0.00 | 75 | 1017.1 |
| 20260830145429 | 87 | 289 | 4.3 | 7.0 | 0.00 | 0.00 | 0.00 | 75 | 1017.0 |
| 20260830144929 | 87 | 67 | 3.5 | 6.1 | 0.00 | 0.00 | 0.00 | 75 | 1016.9 |
| 20260830144612 | 87 | 213 | 1.7 | 7.0 | 0.00 | 0.00 | 0.00 | 75 | 1017.2 |
| 20260830144429 | 87 | 44 | 1.7 | 7.8 | 0.00 | 0.00 | 0.00 | 76 | 1016.9 |
| 20260830144413 | 87 | 285 | 2.6 | 7.8 | 0.00 | 0.00 | 0.00 | 76 | 1016.9 |
| 20260830143430 | 86 | 281 | 2.6 | 7.0 | 0.00 | 0.00 | 0.00 | 77 | 1016.9 |
| 20260830143100 | 86 | 281 | 0.9 | 7.8 | 0.00 | 0.00 | 0.00 | 78 | 1016.9 |
| 20260830142929 | 86 | 139 | 1.7 | 7.8 | 0.00 | 0.00 | 0.00 | 78 | 1016.7 |
| 20260830142428 | 86 | 133 | 2.6 | 7.8 | 0.00 | 0.00 | 0.00 | 79 | 1016.7 |
| 20260830141929 | 86 | 230 | 2.6 | 7.0 | 0.00 | 0.00 | 0.00 | 80 | 1016.5 |